Regional Weather Roundup
Issued by NWS

Home | Current Version | Previous Version | Graphics & Text | Print | Product List | Glossary On
Versions: 1 2 3 4 5 6 7 8 9 10 11 12 13 14 15 16 17 18 19 20 21 22 23 24 25 26 27 28 29 30 31 32 33 34 35 36 37 38 39 40 41 42 43 44 45 46 47 48 49 50
000
ASUS43 KIND 292309
RWRIN

WEATHER ROUNDUP FOR INDIANA
NATIONAL WEATHER SERVICE INDIANAPOLIS IN
700 PM EDT FRI AUG 29 2014

NOTE: "FAIR" INDICATES FEW OR NO CLOUDS BELOW 12,000 FEET WITH NO
SIGNIFICANT WEATHER AND/OR OBSTRUCTIONS TO VISIBILITY.

* - STATION DOES NOT REPORT WEATHER SUCH AS PRECIPITATION OR FOG.

+ - STATION NOT QUALITY CONTROLLED BY THE NATIONAL WEATHER SERVICE.
    USE DATA WITH CAUTION...ESPECIALLY DEWPOINT AND RELATIVE
    HUMIDITY OBSERVATIONS.

INZ001>003-010>013-019-020-300000-
NORTHWEST INDIANA

CITY           SKY/WX    TMP DP  RH WIND       PRES   REMARKS
GARY /AIRPORT/ PTSUNNY   82  72  69 SE14      29.91F
KNOX *+        PTSUNNY   77  71  81 SE3       29.93F
LA PORTE +     CLOUDY    74  71  89 CALM      29.95F
MICHIGAN CITY+ CLOUDY    75  68  78 CALM      29.94F
MONTICELLO +   PTSUNNY   80  72  78 E5        29.93S
RENSSELAER +   PTSUNNY   79  72  78 SE10      29.94R
VALPARAISO     HVY RAIN  75  71  87 CALM      29.95S FOG

$$

LMZ046-743>745-300000-
SOUTHERN LAKE MICHIGAN

STATION/POSITION TIME  TEMP WIND        PRES
                       AIR  DIR/SP/G
                 (UTC) (F)  (DEG/KT/KT) (MB)
MICHIGAN CITY    2300   78  120/  8/ 11   N/A

$$

INZ004-005-014>016-021>024-300000-
NORTH CENTRAL INDIANA

CITY           SKY/WX    TMP DP  RH WIND       PRES   REMARKS
ELKHART        PTSUNNY   75  73  94 CALM      29.96F
GOSHEN         PTSUNNY   81  70  69 SE14      29.96F
LOGANSPORT +   PTSUNNY   79  68  69 SE8       29.96S
PERU/GRISSOM   PTSUNNY   82  75  79 SE9       29.95F
ROCHESTER +    PTSUNNY   81  70  69 SE9       29.96F
SOUTH BEND     PTSUNNY   77  72  84 SE7       29.95F
WARSAW +       PTSUNNY   79  70  73 SE6       29.97F

$$

INZ006>009-017-018-025>027-300000-
NORTHEAST INDIANA

CITY           SKY/WX    TMP DP  RH WIND       PRES   REMARKS
ANGOLA *+      SUNNY     79  68  69 S6        30.00F
AUBURN +       MOSUNNY   79  64  61 SE3       30.01S
FORT WAYNE     MOSUNNY   80  69  69 SE7       30.00S
HUNTINGTON +   SUNNY     80  70  73 SE6       29.98F

$$

INZ028-029-035-036-043>045-051>053-300000-
WEST CENTRAL INDIANA

CITY           SKY/WX    TMP DP  RH WIND       PRES   REMARKS
GREENCASTLE +  MOSUNNY   77  75  94 CALM      29.95R
LAFAYETTE      MOSUNNY   80  69  69 S6        29.94R
TERRE HAUTE    LGT RAIN  75  68  78 SE7       29.93F

$$

INZ030>032-037>040-046>048-054>057-064-065-300000-
CENTRAL INDIANA

CITY           SKY/WX    TMP DP  RH WIND       PRES   REMARKS
CP ATTERBURY + SUNNY     86  72  62 S6        29.97R
COLUMBUS       MOSUNNY   86  70  58 S10       29.97
FRANKFORT +    MOSUNNY   81  73  76 SE6       29.96S
INDIANAPOLIS   PTSUNNY   83  71  67 SE9       29.94S
-EAGLE CREEK   MOSUNNY   84  69  60 SE7       29.94S
KOKOMO *+      PTSUNNY   81  72  74 SE7       29.96F
MARION +       MOSUNNY   82  68  63 SE9       29.98F
MT COMFORT *+  SUNNY     84  72  65 SE5       29.97F
SHELBYVILLE    SUNNY     86  72  62 S9        29.96S
ZIONSVILLE +   MOSUNNY   83  69  62 SE9       29.96F

$$

INZ033-034-041-042-049-050-058-059-300000-
EAST CENTRAL INDIANA

CITY           SKY/WX    TMP DP  RH WIND       PRES   REMARKS
MUNCIE         SUNNY     83  68  60 SE10      29.99S

$$

INZ060-061-067>069-081>083-085>088-300000-
SOUTHWEST INDIANA

CITY           SKY/WX    TMP DP  RH WIND       PRES   REMARKS
EVANSVILLE     SUNNY     89  65  44 S10       29.93S
WASHINGTON +   MOSUNNY   85  73  65 S5        29.94R

$$

INZ062-063-066-070>080-084-089>092-300000-
SOUTH CENTRAL AND SOUTHEAST INDIANA

CITY           SKY/WX    TMP DP  RH WIND       PRES   REMARKS
BLOOMINGTON    MOSUNNY   84  68  58 S8        29.96R

$$



USA.gov is the U.S. government's official web portal to all federal, state and local government web resources and services.